TimeMST,TemperatureF,Dew PointF,Humidity,Sea Level PressureIn,VisibilityMPH,Wind Direction,Wind SpeedMPH,Gust SpeedMPH,PrecipitationIn,Events,Conditions,WindDirDegrees,DateUTC
12:55 AM,39.7,21.7,49,29.97,10.0,SE,6.9,-,N/A,,Clear,130,2012-11-25 07:55:00
1:55 AM,36.3,21.7,56,29.96,10.0,ESE,12.7,-,N/A,,Clear,110,2012-11-25 08:55:00
2:55 AM,36.9,23.0,57,29.96,10.0,East,9.2,-,N/A,,Clear,100,2012-11-25 09:55:00
3:55 AM,35.8,22.6,59,29.96,10.0,East,6.9,-,N/A,,Clear,100,2012-11-25 10:55:00
4:55 AM,36.0,23.0,59,29.97,10.0,ESE,10.4,-,N/A,,Clear,110,2012-11-25 11:55:00
5:55 AM,34.2,22.8,63,29.98,10.0,SE,5.8,-,N/A,,Mostly Cloudy,130,2012-11-25 12:55:00
6:55 AM,34.5,23.4,64,30.00,10.0,ESE,5.8,-,N/A,,Clear,110,2012-11-25 13:55:00
7:55 AM,35.2,22.8,61,30.02,10.0,East,4.6,-,N/A,,Mostly Cloudy,100,2012-11-25 14:55:00
8:55 AM,38.1,24.3,57,30.01,10.0,ENE,4.6,-,N/A,,Mostly Cloudy,70,2012-11-25 15:55:00
9:55 AM,39.0,27.0,62,30.01,10.0,East,5.8,-,N/A,,Partly Cloudy,90,2012-11-25 16:55:00
10:09 AM,41.0,28.4,61,30.02,10.0,Calm,Calm,-,N/A,,Mostly Cloudy,0,2012-11-25 17:09:00
10:55 AM,40.8,29.3,64,30.04,10.0,NNW,5.8,-,N/A,,Overcast,330,2012-11-25 17:55:00
11:55 AM,41.4,29.8,64,30.01,10.0,SE,3.5,-,N/A,,Mostly Cloudy,130,2012-11-25 18:55:00
12:55 PM,42.6,31.8,66,30.01,10.0,WNW,3.5,-,N/A,,Overcast,300,2012-11-25 19:55:00
1:55 PM,43.0,31.5,64,30.02,10.0,Calm,Calm,-,N/A,,Overcast,0,2012-11-25 20:55:00
2:32 PM,42.8,32.0,66,30.01,10.0,Calm,Calm,-,N/A,,Scattered Clouds,0,2012-11-25 21:32:00
2:43 PM,42.8,32.0,66,30.01,10.0,Calm,Calm,-,N/A,,Mostly Cloudy,0,2012-11-25 21:43:00
2:50 PM,44.6,32.0,61,30.01,10.0,Calm,Calm,-,N/A,,Scattered Clouds,0,2012-11-25 21:50:00
2:55 PM,45.0,32.5,62,30.01,10.0,South,4.6,-,N/A,,Scattered Clouds,190,2012-11-25 21:55:00
3:22 PM,44.6,32.0,61,30.01,10.0,SSW,4.6,-,N/A,,Mostly Cloudy,210,2012-11-25 22:22:00
3:27 PM,44.6,30.2,57,30.01,10.0,SSW,5.8,-,N/A,,Scattered Clouds,210,2012-11-25 22:27:00
3:55 PM,44.2,29.8,57,30.03,10.0,WSW,4.6,-,N/A,,Partly Cloudy,250,2012-11-25 22:55:00
4:31 PM,42.8,28.4,57,30.04,10.0,Calm,Calm,-,N/A,,Mostly Cloudy,0,2012-11-25 23:31:00
4:55 PM,42.3,29.3,60,30.03,10.0,Calm,Calm,-,N/A,,Mostly Cloudy,0,2012-11-25 23:55:00
5:00 PM,41.0,28.4,61,30.03,10.0,SSW,3.5,-,N/A,,Scattered Clouds,210,2012-11-26 00:00:00
5:55 PM,36.7,28.4,72,30.06,10.0,SSE,5.8,-,N/A,,Partly Cloudy,160,2012-11-26 00:55:00
6:44 PM,37.4,28.4,70,30.07,10.0,Calm,Calm,-,N/A,,Mostly Cloudy,0,2012-11-26 01:44:00
6:51 PM,37.4,30.2,75,30.07,10.0,North,3.5,-,N/A,,Scattered Clouds,360,2012-11-26 01:51:00
6:55 PM,38.5,29.7,71,30.07,10.0,Calm,Calm,-,N/A,,Scattered Clouds,0,2012-11-26 01:55:00
7:55 PM,38.5,30.7,74,30.08,10.0,NNE,4.6,-,N/A,,Clear,30,2012-11-26 02:55:00
8:50 PM,37.4,32.0,81,30.09,10.0,Calm,Calm,-,N/A,,Mostly Cloudy,0,2012-11-26 03:50:00
8:55 PM,37.2,31.5,80,30.09,10.0,NNE,3.5,-,N/A,,Mostly Cloudy,20,2012-11-26 03:55:00
9:55 PM,36.5,30.0,77,30.12,10.0,NNE,3.5,-,N/A,,Overcast,20,2012-11-26 04:55:00
10:42 PM,35.6,32.0,87,30.12,9.0,Calm,Calm,-,N/A,,Overcast,0,2012-11-26 05:42:00
10:55 PM,36.3,32.0,84,30.12,9.0,Calm,Calm,-,N/A,,Mostly Cloudy,0,2012-11-26 05:55:00
11:02 PM,37.4,32.0,81,30.12,9.0,Calm,Calm,-,N/A,,Scattered Clouds,0,2012-11-26 06:02:00
11:08 PM,35.6,32.0,87,30.13,9.0,East,3.5,-,N/A,,Scattered Clouds,80,2012-11-26 06:08:00
11:16 PM,35.6,30.2,81,30.13,10.0,ESE,5.8,-,N/A,,Mostly Cloudy,110,2012-11-26 06:16:00
11:55 PM,36.9,28.6,72,30.13,10.0,SE,5.8,-,N/A,,Overcast,130,2012-11-26 06:55:00